Simultaneous Nadir Overpasses (SNOs) Predictions

Prediction of SNOs between METOP-B and NOAA-19 Satellite Orbit:

Table of predicted SNOs for the next 14.0 days since TLE Epoch: 9/18/2015
Index Date (METOP-B) Time (METOP-B) Lat,Lon (METOP-B) SZA (METOP-B ) Date (NOAA-19) Time (NOAA-19) Lat,Lon (NOAA-19) SZA (NOAA-19 ) Distance(km) Time Diff (sec)
1 09/24/2015 18:43:16 -75.73, 78.81 103.79 09/24/2015 18:42:09 -75.74, 75.82 103.78 81.72 67
2 09/24/2015 19:34:06 75.26,-115.33 75.75 09/24/2015 19:33:01 75.24,-115.33 75.74 1.16 65
3 09/24/2015 20:24:48 -75.24, 51.96 104.26 09/24/2015 20:24:01 -75.26, 51.88 104.24 2.77 47
4 09/24/2015 21:15:28 75.23,-140.73 75.75 09/24/2015 21:15:03 75.22,-140.77 75.74 1.79 25
5 09/24/2015 22:06:10 -75.22, 26.56 104.25 09/24/2015 22:06:03 -75.24, 26.44 104.24 3.57 7
6 09/24/2015 22:56:50 75.21,-166.13 75.76 09/24/2015 22:57:05 75.20,-166.20 75.74 2.74 15
7 09/24/2015 23:47:32 -75.20, 1.16 104.25 09/24/2015 23:48:04 -75.17, 1.15 104.28 3.89 32
8 09/25/2015 00:38:13 75.15, 168.33 75.72 09/25/2015 00:39:07 75.17, 168.36 75.75 3.26 54
9 09/25/2015 01:28:55 -75.13, -24.38 104.29 09/25/2015 01:30:06 -75.14, -24.29 104.28 2.79 71




NCC Satellite Simultaneous Nadir Overpasses (SNOs) Prediction Service
